Карточка аэропорта UATG

Внимание!
Информация на этой странице в стадии наполнения.
Если вы не увидели какой-то информации, или заметили неточность - пожалуйста сообщите нам!
Спасибо!
Команда RU-STAFF
Название аэропортаАтырау
Название аэропорта (англ.)Atyrau
Превышение-72 ft. (-21.9 m.)
Координаты47°7.332', 51°49.764'
Высота перехода10000ft
Эшелон переходаFL120, QNH<733:FL130
Коды ответчика3450-3457, 3560-3567
Зона ОрВДАктобе РПИ (UATT)
Данные METARUATG 300000Z 12006MPS 9999 SCT033CB 23/00 Q1018 NOSIG RMK QFE765/1020
Проноз погоды (TAF)UATG 291701Z 2918/3018 11006MPS 9999 SCT033CB TX30/3010Z TN18/3002Z BECMG 3005/3007 15011MPS BECMG 3011/3013 12006MPS
NOTAMshow/hide NOTAM
AWOS   TABLE

Информация о ВПП

ВПП Длина ВПП (м.) Покрытие Курс ВПП Частота ILS
323000Асфальтобетон329108.3
143000Асфальтобетон149109.9

Диспетчерские позиции

Позывной Наименование органа УВД Частота
UATG_APPАтырау Подход123.7
UATG_TWRАтырау Вышка118.1



Спутниковое изображение